Regional Weather Roundup
Issued by NWS

Current Version | Previous Version | Text Only | Print | Product List | Glossary On
Versions: 1 2 3 4 5 6 7 8 9 10 11 12 13 14 15 16 17 18 19 20 21 22 23 24 25 26 27 28 29 30 31 32 33 34 35 36 37 38 39 40 41 42 43 44 45 46 47 48 49 50
000
ASUS46 KSEW 211920
RWRWA

WASHINGTON REGIONAL WEATHER ROUNDUP
NATIONAL WEATHER SERVICE SEATTLE WA
1200 PM PDT SAT SEP 21 2019

NOTE:"FAIR" INDICATES FEW OR NO CLOUDS BELOW 12,000 FEET WITH NO
SIGNIFICANT WEATHER AND/OR OBSTRUCTIONS TO VISIBILITY.

WAZ507-509-555>559-212000-
SEATTLE, TACOMA, EVERETT, AND VICINITY

CITY           SKY/WX    TMP DP  RH WIND       PRES   REMARKS
EVERETT        CLOUDY    59  55  87 W5        30.14F
BOEING FIELD   NOT AVBL
RENTON         CLOUDY    64  52  64 S7        30.12F
SEATAC AIRPORT CLOUDY    63  53  70 SW7       30.13F
JBLM-MCCHORD   PTSUNNY   66  59  77 W9        30.12F
PUYALLUP       FAIR      68  55  64 VRB3      30.13F
BREMERTON      CLOUDY    58  55  90 SW5         N/A
JBLM-FT LEWIS  NOT AVBL
TACOMA NARROWS PTSUNNY   61  53  75 VRB6      30.14F
$$

WAZ001-503-506-510-514-515-212000-
NORTH INTERIOR

CITY           SKY/WX    TMP DP  RH WIND       PRES   REMARKS
BELLINGHAM     MOSUNNY   63  54  72 S7        30.11F
FRIDAY HARBOR  CLOUDY    63  54  72 S7        30.12F
EASTSOUND      PTSUNNY   64  55  72 S9        30.10F
PORT ANGELES   CLOUDY    62  53  72 NE3       30.12S
EDIZ HOOK      CLOUDY    61  56  82 N6        30.11F
PORT TOWNSEND  FAIR      64  57  77 E8        30.10F
NAS WHIDBEY    PTSUNNY   65  54  67 SE10      30.16F
ARLINGTON      CLOUDY    63  56  78 S7        30.13F
BURLINGTON     CLOUDY    66  57  72 S6        30.12F
$$

WAZ020-022-039-040-504-511-512-212000-
SOUTHWEST INTERIOR

CITY           SKY/WX    TMP DP  RH WIND       PRES   REMARKS
SHELTON        CLOUDY    63  54  72 CALM      30.11F
OLYMPIA        CLOUDY    64  54  69 SW6       30.13S
CHEHALIS       CLOUDY    68  57  68 VRB3      30.13F
KELSO          SUNNY     66  55  67 S3        30.14F
VANCOUVER      CLOUDY    66  52  60 VRB5      30.13F
SCAPPOOSE, OR  CLOUDY    65  56  72 CALM      30.13F
PORTLAND, OR   PTSUNNY   67  52  58 N6        30.14F
$$

WAZ021-516-517-212000-
WASHINGTON COAST

CITY           SKY/WX    TMP DP  RH WIND       PRES   REMARKS
FORKS          CLOUDY    62  57  83 S9        30.11S
HOQUIAM        CLOUDY    62  61  96 CALM      30.13F
ASTORIA, OR    CLOUDY    65  57  75 CALM      30.12F
$$

WAZ019-023-024-040-567>569-212000-
CASCADE MOUNTAINS AND COLUMBIA GORGE

CITY           SKY/WX    TMP DP  RH WIND       PRES   REMARKS
STAMPEDE PASS  SUNNY     55  48  77 VRB6      30.13F
TROUTDALE, OR  MOSUNNY   68  54  60 VRB3      30.14F
HOOD RIVER, OR CLEAR     70  50  49 W10G17    30.08F
THE DALLES, OR SUNNY     70  52  52 CALM      30.08F
$$

WAZ026-027-041>044-520-521-212000-
EAST SLOPES

CITY           SKY/WX    TMP DP  RH WIND       PRES   REMARKS
OMAK           SUNNY     64  44  48 SE5       30.05F
WENATCHEE      SUNNY     67  44  43 CALM      30.05F
ELLENSBURG     SUNNY     70  44  39 S7        30.06F
YAKIMA         SUNNY     69  44  40 VRB3      30.07F
SUNNYSIDE ARPT CLEAR     69  49  48 CALM      30.07F
YAKIMA TC      FAIR      68  40  36 W5        30.05F
$$

WAZ028-034-035-212000-
COLUMBIA BASIN

CITY           SKY/WX    TMP DP  RH WIND       PRES   REMARKS
EPHRATA        SUNNY     68  44  42 SE8       30.06F
MOSES LAKE     SUNNY     70  46  42 S10       30.07F
PASCO          SUNNY     72  47  40 SW8       30.08F
RICHLAND ARPT  CLEAR     73  47  39 SW6       30.07
HERMISTON, OR  SUNNY     72  49  44 W9        30.08F
$$

WAZ036>038-212000-
NORTHEAST WASHINGTON

CITY           SKY/WX    TMP DP  RH WIND       PRES   REMARKS
SPOKANE GEIGER PTSUNNY   61  46  57 SW9       30.09F
SPOKANE FELTS  MOSUNNY   63  48  58 S5        30.10F
FAIRCHILD AFB  SUNNY     61  49  64 S8        30.09F
COEURDALENE,ID CLOUDY    59  48  67 SE7       30.11F
DEER PARK      SUNNY     58  47  66 CALM      30.11F
$$

WAZ029>033-212000-
SOUTHEAST WASHINGTON

CITY           SKY/WX    TMP DP  RH WIND       PRES   REMARKS
PULLMAN        SUNNY     64  45  49 W10       30.13F
LEWISTON, ID   MOSUNNY   67  51  56 CALM      30.10F
WALLA WALLA    SUNNY     68  47  46 SW13      30.10F
PENDLETON, OR  SUNNY     70  46  42 W14       30.10F
$$



USA.gov is the U.S. government's official web portal to all federal, state and local government web resources and services.